Hilton Head Island, SC

9:12 AM EDT on July 28, 2017 (GMT -0400)
Hilton Head

Weather History for KHXD - March, 2014

Change the Weather History Date:

Friday, March 21, 2014

  Actual Average Record
Temperature  
Mean Temperature 55 °F -  
Max Temperature 62 °F 70 °F 87 °F (1982)
Min Temperature 48 °F 50 °F 31 °F (1956)
Degree Days  
Heating Degree Days 10    
Growing Degree Days 5 (Base 50)    
Moisture  
Dew Point 46 °F    
Average Humidity 78    
Maximum Humidity 100    
Minimum Humidity 34    
Precipitation  
Precipitation 0.00 in - - ()
Sea Level Pressure  
Sea Level Pressure 30.10 in    
Wind  
Wind Speed 4 mph (NNW)    
Max Wind Speed 13 mph    
Max Gust Speed 17 mph    
Visibility 8 miles    
Events      
Averages and records for this station are not official NWS values.
T = Trace of Precipitation, MM = Missing Value Source: NWS Daily Summary

Daily Weather History Graph

Daily Weather History Graph

Search for Another Location

Airport or City:

Trip Planner

Search our weather history database for the weather conditions in past years. The results will help you decide how hot, cold, wet, or windy it might be!

Date:

Astronomy

Mar. 21, 2014 Rise Set
Actual Time 7:25 AM EDT 7:35 PM EDT
Civil Twilight 7:00 AM EDT 7:59 PM EDT
Nautical Twilight 6:32 AM EDT 8:28 PM EDT
Astronomical Twilight 6:03 AM EDT 8:56 PM EDT
Moon No Moon Rise 10:31 AM EDT (3/21)
Length of Visible Light 12h 58m
Length of Day
12h 09m
Waning Gibbous, 75% of the Moon is Illuminated
Mar 21
Waning Gibbous
Mar 23
Last Quarter
Mar 30
New
Apr 7
First Quarter
Apr 15
Full

Hourly Weather History & Observations

Time (EDT) Temp. Dew Point Humidity Pressure Visibility Wind Dir Wind Speed Gust Speed Precip Events Conditions
12:15 AM 53.6 °F 53.6 °F 100% 30.07 in 8.0 mi SW 3.5 mph - 0.00 in   Clear
12:35 AM 53.6 °F 51.8 °F 94% 30.07 in 7.0 mi West 3.5 mph - 0.00 in   Clear
12:55 AM 51.8 °F 51.8 °F 100% 30.07 in 8.0 mi WSW 3.5 mph - 0.00 in   Clear
1:15 AM 51.8 °F 51.8 °F 100% 30.07 in 8.0 mi WSW 3.5 mph - 0.00 in   Clear
1:35 AM 51.8 °F 51.8 °F 100% 30.08 in 5.0 mi West 3.5 mph - 0.00 in   Clear
1:55 AM 51.8 °F 50.0 °F 94% 30.08 in 7.0 mi WNW 3.5 mph - 0.00 in   Clear
2:15 AM 50.0 °F 48.2 °F 94% 30.08 in 6.0 mi NW 3.5 mph - 0.00 in   Clear
2:35 AM 50.0 °F 46.4 °F 87% 30.08 in 10.0 mi Calm Calm - 0.00 in   Clear
2:55 AM 55.4 °F 37.4 °F 51% 30.08 in 10.0 mi NW 4.6 mph - 0.00 in   Clear
3:15 AM 53.6 °F 39.2 °F 58% 30.08 in 10.0 mi NW 3.5 mph - 0.00 in   Clear
3:35 AM 51.8 °F 42.8 °F 71% 30.08 in 10.0 mi NW 3.5 mph - 0.00 in   Clear
3:55 AM 48.2 °F 41.0 °F 76% 30.07 in 10.0 mi WNW 3.5 mph - 0.00 in   Clear
4:15 AM 48.2 °F 39.2 °F 71% 30.07 in 10.0 mi NW 4.6 mph - 0.00 in   Clear
4:35 AM 48.2 °F 37.4 °F 66% 30.07 in 10.0 mi WNW 3.5 mph - 0.00 in   Clear
4:55 AM 48.2 °F 39.2 °F 71% 30.08 in 10.0 mi WNW 3.5 mph - 0.00 in   Clear
5:15 AM 51.8 °F 35.6 °F 54% 30.08 in 10.0 mi NW 3.5 mph - 0.00 in   Clear
5:35 AM 48.2 °F 35.6 °F 62% 30.08 in 10.0 mi NW 4.6 mph - 0.00 in   Clear
6:50 AM 50.0 °F 35.6 °F 58% - 10.0 mi North 6.9 mph - N/A   Clear
7:50 AM 50.0 °F 35.6 °F 58% - 10.0 mi North 10.4 mph - N/A   Clear
8:50 AM 53.6 °F 35.6 °F 51% - 10.0 mi NNE 10.4 mph - N/A   Clear
9:50 AM 57.2 °F 35.6 °F 44% - 10.0 mi NNE 9.2 mph 17.3 mph N/A   Clear
11:50 AM 59.0 °F 41.0 °F 51% - 10.0 mi NNE 12.7 mph - N/A   Unknown
12:50 PM 59.0 °F 41.0 °F 51% - 10.0 mi NNE 12.7 mph - N/A   Clear
1:47 PM 62.6 °F 41.0 °F 45% - 10.0 mi NNE 9.2 mph - N/A   Clear
2:50 PM 62.6 °F 33.8 °F 34% - 10.0 mi NE 10.4 mph - N/A   Clear
3:50 PM 60.8 °F 44.6 °F 55% - 10.0 mi NNE 12.7 mph - N/A   Clear
4:50 PM 60.8 °F 46.4 °F 59% 30.12 in 10.0 mi NE 10.4 mph - N/A   Scattered Clouds
5:50 PM 60.8 °F 48.2 °F 63% 30.12 in 9.0 mi NE 6.9 mph - N/A   Scattered Clouds
6:50 PM 57.2 °F 51.8 °F 82% 30.12 in 10.0 mi NE 4.6 mph - N/A   Scattered Clouds
7:50 PM 55.4 °F 51.8 °F 88% 30.12 in 10.0 mi Calm Calm - N/A   Scattered Clouds
8:15 PM 53.6 °F 51.8 °F 94% 30.12 in 9.0 mi Calm Calm - 0.00 in   Clear
8:35 PM 53.6 °F 51.8 °F 94% 30.12 in 8.0 mi NE 3.5 mph - 0.00 in   Clear
8:55 PM 53.6 °F 51.8 °F 94% 30.12 in 7.0 mi NE 3.5 mph - 0.00 in   Clear
9:15 PM 53.6 °F 51.8 °F 94% 30.12 in 7.0 mi Calm Calm - 0.00 in   Clear
9:35 PM 53.6 °F 51.8 °F 94% 30.12 in 6.0 mi NE 3.5 mph - 0.00 in   Clear
9:55 PM 51.8 °F 51.8 °F 100% 30.12 in 5.0 mi Calm Calm - 0.00 in   Clear
10:15 PM 51.8 °F 51.8 °F 100% 30.12 in 5.0 mi ENE 3.5 mph - 0.00 in   Clear
10:35 PM 51.8 °F 51.8 °F 100% 30.12 in 5.0 mi Calm Calm - 0.00 in   Clear
10:55 PM 51.8 °F 51.8 °F 100% 30.12 in 4.0 mi Calm Calm - 0.00 in   Clear
11:15 PM 51.8 °F 51.8 °F 100% 30.12 in 4.0 mi Calm Calm - 0.00 in   Clear
11:35 PM 51.8 °F 51.8 °F 100% 30.12 in 4.0 mi Calm Calm - 0.00 in   Clear
11:55 PM 51.8 °F 51.8 °F 100% 30.13 in 4.0 mi Calm Calm - 0.00 in   Clear